Weather History for KY50 - November, 2012

Change the Weather History Date:

Tuesday, November 6, 2012

  Actual Average (KPCZ) Record (KPCZ)
Temperature  
Mean Temperature 28 °F -  
Max Temperature 36 °F 45 °F 68 °F (1975)
Min Temperature 21 °F 28 °F -6 °F (1951)
Degree Days  
Heating Degree Days 36    
Moisture  
Dew Point 33 °F    
Average Humidity 97    
Maximum Humidity 100    
Minimum Humidity 85    
Precipitation  
Precipitation 0.06 in - - ()
Sea Level Pressure  
Sea Level Pressure 29.92 in    
Wind  
Wind Speed 3 mph (SSE)    
Max Wind Speed 10 mph    
Max Gust Speed -    
Visibility 2 miles    
Events Rain , Snow    
Averages and records for this station are not official NWS values.
T = Trace of Precipitation, MM = Missing Value Source: NWS Daily Summary

Daily Weather History Graph

Daily Weather History Graph

Search for Another Location

Airport or City:

Trip Planner

Search our weather history database for the weather conditions in past years. The results will help you decide how hot, cold, wet, or windy it might be!

Date:

Astronomy

Nov. 06, 2012 Rise Set
Actual Time 6:41 AM CST 4:40 PM CST
Civil Twilight 6:10 AM CST 5:10 PM CST
Nautical Twilight 5:36 AM CST 5:45 PM CST
Astronomical Twilight 5:02 AM CST 6:18 PM CST
Moon 11:21 PM CST (11/6) 12:31 PM CST (11/6)
Length of Visible Light 11h 00m
Length of Day
9h 59m
Waning Gibbous, 53% of the Moon is Illuminated
Nov 6
Waning Gibbous
Nov 6
Last Quarter
Nov 13
New
Nov 20
First Quarter
Nov 28
Full

Hourly Weather History & Observations

Time (CST) Temp. Windchill Dew Point Humidity Pressure Visibility Wind Dir Wind Speed Gust Speed Precip Events Conditions
12:56 AM 21.0 °F - 19.0 °F 92% 30.11 in 8.0 mi Calm Calm - N/A   Mostly Cloudy
1:56 AM 24.1 °F - 22.1 °F 92% 30.07 in 9.0 mi Calm Calm - N/A   Overcast
2:56 AM 27.1 °F - 26.1 °F 96% 30.05 in 7.0 mi Calm Calm - N/A   Overcast
3:56 AM 27.1 °F - 26.1 °F 96% 30.04 in 8.0 mi Calm Calm - N/A   Overcast
4:56 AM 29.1 °F - 28.0 °F 96% 30.01 in 4.0 mi Calm Calm - N/A   Overcast
5:56 AM 31.1 °F - 30.0 °F 96% 29.99 in 4.0 mi Calm Calm - N/A   Mostly Cloudy
6:56 AM 32.0 °F 28.7 °F 29.1 °F 89% 29.99 in 6.0 mi South 3.5 mph - N/A   Overcast
7:56 AM 32.9 °F 26.7 °F 29.1 °F 86% 29.98 in 4.0 mi South 6.9 mph - 0.00 in   Overcast
8:41 AM 33.8 °F 30.8 °F 30.2 °F 87% 29.94 in 2.0 mi South 3.5 mph - 0.00 in Snow Light Snow
8:48 AM 33.8 °F - 30.2 °F 87% 29.94 in 1.8 mi Calm Calm - 0.00 in Snow Light Snow
8:56 AM 34.0 °F 29.8 °F 30.0 °F 85% 29.96 in 2.5 mi South 4.6 mph - 0.00 in Snow Light Snow
9:08 AM 33.8 °F 27.7 °F 30.2 °F 87% 29.94 in 1.2 mi SSE 6.9 mph - 0.00 in Snow Light Snow
9:16 AM 33.8 °F - 30.2 °F 87% 29.93 in 1.2 mi Calm Calm - 0.00 in Snow Light Snow
9:26 AM 33.8 °F 28.6 °F 32.0 °F 93% 29.93 in 1.5 mi SSE 5.8 mph - 0.00 in Snow Light Snow
9:56 AM 34.0 °F 28.0 °F 32.9 °F 96% 29.95 in 1.5 mi SSE 6.9 mph - 0.00 in Snow Light Snow
10:16 AM 33.8 °F - 33.8 °F 100% 29.93 in 2.0 mi Calm Calm - 0.00 in Rain Light Rain
10:23 AM 33.8 °F 29.6 °F 33.8 °F 100% 29.93 in 1.8 mi South 4.6 mph - 0.00 in Snow Light Snow
10:41 AM 33.8 °F - 33.8 °F 100% 29.92 in 1.2 mi Calm Calm - 0.00 in Snow Light Snow
10:56 AM 34.0 °F 28.8 °F 32.9 °F 96% 29.94 in 1.0 mi SSE 5.8 mph - 0.01 in Snow Light Snow
11:06 AM 33.8 °F 29.6 °F 33.8 °F 100% 29.91 in 1.0 mi SSE 4.6 mph - 0.00 in Snow Light Snow
11:30 AM 33.8 °F 27.7 °F 33.8 °F 100% 29.89 in 1.2 mi SE 6.9 mph - 0.00 in Snow Light Snow
11:42 AM 33.8 °F 26.4 °F 33.8 °F 100% 29.89 in 1.5 mi SSE 9.2 mph - 0.00 in Rain Light Rain
11:56 AM 34.0 °F 27.2 °F 34.0 °F 100% 29.90 in 1.8 mi SE 8.1 mph - 0.00 in   Overcast
12:14 PM 35.6 °F 29.9 °F 35.6 °F 100% 29.87 in 2.0 mi SSE 6.9 mph - N/A   Overcast
12:40 PM 35.6 °F 29.9 °F 35.6 °F 100% 29.86 in 1.8 mi SSE 6.9 mph - 0.00 in   Overcast
12:56 PM 34.9 °F 28.3 °F 34.9 °F 100% 29.88 in 1.8 mi SSE 8.1 mph - 0.01 in Rain Light Rain
1:09 PM 35.6 °F 28.6 °F 35.6 °F 100% 29.85 in 2.0 mi SSE 9.2 mph - 0.00 in Rain Light Rain
1:24 PM 35.6 °F 28.6 °F 35.6 °F 100% 29.85 in 1.8 mi SSE 9.2 mph - 0.00 in Rain Light Rain
1:56 PM 36.0 °F 29.6 °F 34.9 °F 96% 29.86 in 1.2 mi SSE 8.1 mph - 0.00 in   Overcast
2:06 PM 35.6 °F 29.2 °F 35.6 °F 100% 29.84 in 1.8 mi SSE 8.1 mph - N/A   Overcast
2:36 PM 35.6 °F 29.2 °F 35.6 °F 100% 29.84 in 2.0 mi South 8.1 mph - 0.00 in Rain Light Rain
2:43 PM 35.6 °F 29.9 °F 35.6 °F 100% 29.84 in 1.8 mi SSE 6.9 mph - 0.00 in Rain Light Rain
2:56 PM 36.0 °F 28.5 °F 34.9 °F 96% 29.86 in 2.5 mi SSE 10.4 mph - 0.01 in Rain Light Rain
3:56 PM 34.9 °F 29.9 °F 34.9 °F 100% 29.87 in 2.5 mi South 5.8 mph - 0.01 in Rain Light Rain
4:44 PM 35.6 °F - 35.6 °F 100% 29.85 in 3.0 mi Calm Calm - 0.02 in Rain Light Rain
4:56 PM 34.9 °F - 34.9 °F 100% 29.88 in 3.0 mi Calm Calm - 0.02 in Rain Light Rain
5:56 PM 34.9 °F - 34.9 °F 100% 29.88 in 4.0 mi Calm Calm - 0.00 in   Overcast
6:28 PM 35.6 °F - 35.6 °F 100% 29.87 in 2.5 mi Calm Calm - N/A   Overcast
6:39 PM 35.6 °F - 35.6 °F 100% 29.87 in 1.8 mi Calm Calm - N/A   Overcast
6:56 PM 34.9 °F - 34.9 °F 100% 29.89 in 1.5 mi Calm Calm - N/A   Overcast
7:56 PM 34.9 °F - 34.9 °F 100% 29.89 in 2.0 mi Calm Calm - N/A   Overcast
8:56 PM 34.9 °F - 34.9 °F 100% 29.90 in 1.8 mi Calm Calm - N/A   Overcast
9:15 PM 33.8 °F - 33.8 °F 100% 29.89 in 1.8 mi Calm Calm - N/A   Overcast
9:56 PM 34.0 °F - 34.0 °F 100% 29.91 in 1.5 mi Calm Calm - N/A   Overcast
10:21 PM 33.8 °F - 33.8 °F 100% 29.89 in 1.2 mi Calm Calm - N/A   Overcast
10:56 PM 34.0 °F - 34.0 °F 100% 29.91 in 1.5 mi Calm Calm - N/A   Overcast
11:11 PM 33.8 °F - 33.8 °F 100% 29.90 in 1.2 mi Calm Calm - N/A   Overcast
11:19 PM 33.8 °F - 33.8 °F 100% 29.90 in 1.0 mi Calm Calm - N/A   Overcast
11:46 PM 33.8 °F - 33.8 °F 100% 29.91 in 1.2 mi Calm Calm - N/A   Overcast
11:56 PM 34.0 °F - 34.0 °F 100% 29.93 in 0.8 mi Calm Calm - N/A   Overcast